This demonstration page uses our WeatherBlox Daily Observations layout. Learn more.

41.55636, -103.73856

Hourly Observations for January 30, 2018

Temp ( °F °C ) Dew Point ( °F °C ) Humidity (%) Winds ( mph kmh ) Pressure ( in mb ) Visibility ( mi km ) Precip ( " mm )
12:53 am 00:53 Clear 35 1.7 29 -1.7 78 78 ESE 3 6 30.09 1019 10 16.09344 0 0
1:53 am 01:53 Clear 31 -0.6 27 -2.8 85 85 E 9 15 30.06 1018 10 16.09344 0 0
2:53 am 02:53 Clear 32 0 25 -3.9 75 75 Calm 30.03 1017 10 16.09344 0 0
3:53 am 03:53 Clear 30 -1.1 24 -4.4 79 79 E 3 6 30 1016 10 16.09344 0 0
4:53 am 04:53 Clear 29 -1.7 24 -4.4 82 82 Calm 29.97 1015 10 16.09344 0 0
5:53 am 05:53 Clear 29 -1.7 24 -4.4 82 82 Calm 29.94 1014 10 16.09344 0 0
6:53 am 06:53 Clear 40 4.4 23 -5 51 51 W 6 9 29.91 1013 10 16.09344 0 0
7:53 am 07:53 Sunny 45 7.2 24 -4.4 44 44 W 10 17 29.88 1012 10 16.09344 0 0
8:53 am 08:53 Sunny 48 8.9 26 -3.3 42 42 W 13 20 29.85 1011 10 16.09344 0 0
9:53 am 09:53 Sunny 50 10 24 -4.4 36 36 W 17 28 29.83 1010 10 16.09344 0 0
10:53 am 10:53 Sunny 52 11.1 25 -3.9 35 35 W 18 30 29.8 1009 10 16.09344 0 0
11:53 am 11:53 Sunny 52 11.1 26 -3.3 37 37 W 26 43 29.77 1008 10 16.09344 0 0
12:53 pm 12:53 Sunny 53 11.7 26 -3.3 35 35 W 20 31 29.74 1007 10 16.09344 0 0
1:53 pm 13:53 Sunny 51 10.6 27 -2.8 39 39 W 16 26 29.74 1007 10 16.09344 0 0
2:53 pm 14:53 Sunny 53 11.7 27 -2.8 37 37 WNW 13 20 29.71 1006 10 16.09344 0 0
3:53 pm 15:53 Sunny 51 10.6 28 -2.2 41 41 W 15 24 29.71 1006 10 16.09344 0 0
4:53 pm 16:53 Sunny 54 12.2 25 -3.9 33 33 W 18 30 29.71 1006 10 16.09344 0 0
5:53 pm 17:53 Clear 55 12.8 24 -4.4 30 30 W 20 31 29.71 1006 10 16.09344 0 0
6:53 pm 18:53 Clear 54 12.2 24 -4.4 31 31 W 23 37 29.68 1005 10 16.09344 0 0
7:53 pm 19:53 Clear 51 10.6 25 -3.9 36 36 WNW 14 22 29.68 1005 10 16.09344 0 0
8:53 pm 20:53 Clear 41 5 27 -2.8 57 57 W 10 17 29.68 1005 10 16.09344 0 0
9:53 pm 21:53 Clear 39 3.9 29 -1.7 67 67 NNE 26 43 29.77 1008 10 16.09344 0 0
10:00 pm 22:00 Clear 37 3 28 -2 70 70 NNE 26 43 29.85 1011 10 16.09344 0 0
10:53 pm 22:53 Clear 34 1.1 28 -2.2 79 79 N 9 15 29.85 1011 10 16.09344 0 0
11:53 pm 23:53 Clear 32 0 27 -2.8 82 82 NW 10 17 29.91 1013 10 16.09344 0 0

Powered by AerisWeather